TimeEDT,TemperatureF,Dew PointF,Humidity,Sea Level PressureIn,VisibilityMPH,Wind Direction,Wind SpeedMPH,Gust SpeedMPH,PrecipitationIn,Events,Conditions,WindDirDegrees,DateUTC
12:15 AM,68.0,68.0,100,30.07,2.5,Calm,Calm,-,N/A,,Overcast,0,2013-08-01 04:15:00
12:35 AM,68.2,68.2,100,30.07,1.8,Calm,Calm,-,N/A,Rain,Light Rain,0,2013-08-01 04:35:00
12:55 AM,68.2,68.2,100,30.07,1.8,Calm,Calm,-,N/A,Rain,Heavy Rain,0,2013-08-01 04:55:00
1:15 AM,68.0,68.0,100,30.06,1.5,Calm,Calm,-,0.19,Rain,Light Rain,0,2013-08-01 05:15:00
1:35 AM,67.8,67.8,100,30.05,3.0,Calm,Calm,-,0.19,,Light Drizzle,0,2013-08-01 05:35:00
1:55 AM,67.6,67.6,100,30.05,1.2,North,5.8,-,0.36,Rain,Heavy Rain,360,2013-08-01 05:55:00
2:15 AM,67.6,67.6,100,30.04,5.0,Calm,Calm,-,0.04,Rain,Light Rain,0,2013-08-01 06:15:00
2:35 AM,67.6,67.6,100,30.03,4.0,Calm,Calm,-,0.04,,Overcast,0,2013-08-01 06:35:00
2:55 AM,67.8,67.8,100,30.02,4.0,Calm,Calm,-,0.04,,Overcast,0,2013-08-01 06:55:00
3:15 AM,68.0,68.0,100,30.02,5.0,Calm,Calm,-,N/A,,Overcast,0,2013-08-01 07:15:00
3:35 AM,68.0,68.0,100,30.02,3.0,Calm,Calm,-,N/A,,Overcast,0,2013-08-01 07:35:00
3:55 AM,68.2,68.2,100,30.02,5.0,Calm,Calm,-,N/A,,Overcast,0,2013-08-01 07:55:00
4:15 AM,68.2,68.2,100,30.01,7.0,Calm,Calm,-,N/A,,Overcast,0,2013-08-01 08:15:00
4:35 AM,67.6,67.6,100,30.01,2.0,Calm,Calm,-,N/A,,Overcast,0,2013-08-01 08:35:00
4:55 AM,68.0,68.0,100,30.00,5.0,Calm,Calm,-,N/A,,Overcast,0,2013-08-01 08:55:00
5:15 AM,68.2,68.2,100,30.00,5.0,Calm,Calm,-,N/A,,Overcast,0,2013-08-01 09:15:00
5:35 AM,68.2,68.2,100,30.00,1.8,Calm,Calm,-,N/A,,Overcast,0,2013-08-01 09:35:00
5:55 AM,68.2,68.2,100,30.00,1.0,Calm,Calm,-,N/A,,Overcast,0,2013-08-01 09:55:00
6:15 AM,68.0,68.0,100,30.00,1.8,Calm,Calm,-,N/A,,Overcast,0,2013-08-01 10:15:00
6:35 AM,68.0,68.0,100,30.01,3.0,Calm,Calm,-,N/A,,Overcast,0,2013-08-01 10:35:00
6:55 AM,68.2,68.2,100,30.01,3.0,Calm,Calm,-,N/A,,Overcast,0,2013-08-01 10:55:00
7:15 AM,68.4,68.4,100,30.02,3.0,Calm,Calm,-,N/A,,Overcast,0,2013-08-01 11:15:00
7:35 AM,68.4,68.4,100,30.02,4.0,Calm,Calm,-,N/A,,Overcast,0,2013-08-01 11:35:00
7:55 AM,68.7,68.7,100,30.02,5.0,Calm,Calm,-,N/A,,Overcast,0,2013-08-01 11:55:00
8:15 AM,68.9,68.9,100,30.02,5.0,Calm,Calm,-,N/A,,Overcast,0,2013-08-01 12:15:00
8:35 AM,69.1,68.9,99,30.02,5.0,Calm,Calm,-,N/A,,Overcast,0,2013-08-01 12:35:00
8:55 AM,69.3,68.7,98,30.03,5.0,Calm,Calm,-,N/A,,Overcast,0,2013-08-01 12:55:00
9:15 AM,69.6,68.7,97,30.03,5.0,Calm,Calm,-,N/A,,Overcast,0,2013-08-01 13:15:00
9:35 AM,70.2,68.5,95,30.02,7.0,Calm,Calm,-,N/A,,Overcast,0,2013-08-01 13:35:00
9:55 AM,71.1,68.0,90,30.03,10.0,Calm,Calm,-,N/A,,Overcast,0,2013-08-01 13:55:00
10:15 AM,72.5,68.4,87,30.03,10.0,Calm,Calm,-,N/A,,Overcast,0,2013-08-01 14:15:00
10:35 AM,73.4,68.7,85,30.03,10.0,Calm,Calm,-,N/A,,Mostly Cloudy,0,2013-08-01 14:35:00
10:55 AM,75.2,68.7,80,30.03,10.0,Calm,Calm,-,N/A,,Scattered Clouds,0,2013-08-01 14:55:00
11:15 AM,76.5,69.3,78,30.03,10.0,Calm,Calm,-,N/A,,Scattered Clouds,0,2013-08-01 15:15:00
11:35 AM,77.7,68.9,74,30.03,10.0,Calm,Calm,-,N/A,,Scattered Clouds,0,2013-08-01 15:35:00
11:55 AM,77.2,69.4,77,30.03,10.0,WNW,4.6,-,N/A,,Mostly Cloudy,290,2013-08-01 15:55:00
12:15 PM,75.2,69.4,82,30.03,10.0,WNW,3.5,-,N/A,,Overcast,290,2013-08-01 16:15:00
12:35 PM,73.9,70.7,90,30.04,4.0,WSW,3.5,-,N/A,Rain,Rain,250,2013-08-01 16:35:00
12:55 PM,73.6,72.1,95,30.02,7.0,Calm,Calm,-,N/A,Rain,Light Rain,0,2013-08-01 16:55:00
1:15 PM,74.5,72.1,92,30.01,10.0,Calm,Calm,-,N/A,,Mostly Cloudy,0,2013-08-01 17:15:00
1:35 PM,76.8,70.3,80,30.01,10.0,Calm,Calm,-,N/A,,Scattered Clouds,0,2013-08-01 17:35:00
1:55 PM,78.1,72.1,82,30.01,10.0,South,4.6,-,N/A,,Mostly Cloudy,170,2013-08-01 17:55:00
2:15 PM,78.8,69.4,73,30.00,10.0,Calm,Calm,-,N/A,,Scattered Clouds,0,2013-08-01 18:15:00
2:35 PM,80.4,68.7,67,29.99,10.0,Calm,Calm,-,N/A,,Clear,0,2013-08-01 18:35:00
2:55 PM,81.7,67.1,61,29.99,10.0,Calm,Calm,-,N/A,,Clear,0,2013-08-01 18:55:00
3:15 PM,82.0,66.6,59,29.99,10.0,SW,3.5,-,N/A,,Clear,230,2013-08-01 19:15:00
3:35 PM,82.4,67.1,60,29.98,10.0,Calm,Calm,-,N/A,,Scattered Clouds,0,2013-08-01 19:35:00
3:55 PM,80.6,65.8,61,29.97,7.0,Calm,Calm,-,N/A,Rain,Light Rain,0,2013-08-01 19:55:00
4:15 PM,83.5,64.9,53,29.97,10.0,SW,3.5,-,N/A,,Mostly Cloudy,230,2013-08-01 20:15:00
4:35 PM,83.3,66.2,56,29.97,10.0,SSW,3.5,-,N/A,,Scattered Clouds,210,2013-08-01 20:35:00
4:55 PM,83.5,67.5,58,29.97,10.0,SSW,5.8,-,N/A,,Clear,210,2013-08-01 20:55:00
5:15 PM,83.7,68.2,59,29.97,10.0,South,5.8,-,N/A,,Scattered Clouds,180,2013-08-01 21:15:00
5:35 PM,82.0,70.3,68,29.96,10.0,SSW,10.4,-,N/A,,Scattered Clouds,200,2013-08-01 21:35:00
5:55 PM,82.0,69.6,66,29.96,10.0,SW,6.9,-,N/A,,Scattered Clouds,220,2013-08-01 21:55:00
6:15 PM,80.8,69.3,68,29.97,10.0,SW,3.5,-,N/A,,Clear,230,2013-08-01 22:15:00
6:35 PM,80.8,70.2,70,29.97,10.0,Calm,Calm,-,N/A,,Scattered Clouds,0,2013-08-01 22:35:00
6:55 PM,79.7,70.2,73,29.98,10.0,Calm,Calm,-,N/A,,Mostly Cloudy,0,2013-08-01 22:55:00
7:15 PM,79.7,71.6,76,29.98,10.0,Calm,Calm,-,N/A,,Overcast,0,2013-08-01 23:15:00
7:35 PM,80.1,71.1,74,29.99,10.0,Calm,Calm,-,N/A,,Scattered Clouds,0,2013-08-01 23:35:00
7:55 PM,79.2,72.1,79,29.99,10.0,Calm,Calm,-,N/A,,Clear,0,2013-08-01 23:55:00
8:15 PM,78.1,72.1,82,30.00,10.0,Calm,Calm,-,N/A,,Clear,0,2013-08-02 00:15:00
8:35 PM,74.3,72.9,95,30.01,7.0,Calm,Calm,-,N/A,,Clear,0,2013-08-02 00:35:00
8:55 PM,73.4,72.3,96,30.02,10.0,Calm,Calm,-,N/A,,Clear,0,2013-08-02 00:55:00
9:15 PM,71.8,71.4,99,30.02,7.0,Calm,Calm,-,N/A,,Clear,0,2013-08-02 01:15:00
9:35 PM,71.1,70.3,98,30.03,10.0,Calm,Calm,-,N/A,,Clear,0,2013-08-02 01:35:00
9:55 PM,72.5,72.0,98,30.03,10.0,Calm,Calm,-,N/A,,Scattered Clouds,0,2013-08-02 01:55:00
10:15 PM,70.3,67.8,92,30.03,7.0,Calm,Calm,-,N/A,,Clear,0,2013-08-02 02:15:00
10:35 PM,68.5,68.2,99,30.03,10.0,Calm,Calm,-,N/A,,Clear,0,2013-08-02 02:35:00
10:55 PM,71.8,66.6,84,30.03,10.0,Calm,Calm,-,N/A,,Clear,0,2013-08-02 02:55:00
11:15 PM,68.0,66.2,94,30.03,10.0,Calm,Calm,-,N/A,,Clear,0,2013-08-02 03:15:00
11:35 PM,66.7,66.2,98,30.03,7.0,Calm,Calm,-,N/A,,Clear,0,2013-08-02 03:35:00
11:55 PM,66.4,66.0,99,30.04,7.0,Calm,Calm,-,N/A,,Clear,0,2013-08-02 03:55:00